Location: Pel�-Koumbol�
(14.9505°N, 3.0798°W)
Time: 14:21:40
(UTC+00:00)

STARLINK-1032 - Pass Details

Date: 17 February 2020
Orbit: 549 x 550 km, 53.0° (Epoch: 30 March)

Event Time Altitude Azimuth Distance (km) Brightness Sun altitude
Exits shadow 05:36:45 18° 319° (NW) 1,363 5.2 -14.9°
Maximum altitude 05:39:42 77° 236° (SW) 564 3.5 -14.2°
Drops below altitude 10° 05:43:49 10° 149° (SSE) 1,814 6.8 -13.2°
Sets 05:46:03 0° 147° (SSE) 2,706 7.8 -12.7°
